FW4441 Weather Reports


time (UTC)temp
C
wind
direction
speed
KPH
gust
KPH
rain 1hr
cm
rain 24hr
cm
rain mn
cm
humidity
%
barometer
mb
20260502211530 22 264 0.0 6.4 0.00 0.00 0.00 59 1011.1
20260502210030 23 210 0.0 4.8 0.00 0.00 0.00 58 1011.3
20260502204529 22 302 0.0 4.8 0.00 0.00 0.00 61 1011.3
20260502201530 19 20 3.2 11.3 0.00 0.00 0.00 71 1011.7
20260502200030 17 121 3.2 9.7 0.00 0.00 0.00 75 1012.0
20260502194607 16 262 8.0 14.5 0.00 0.00 0.00 75 1011.8
20260502193040 17 325 6.4 11.3 0.00 0.00 0.00 84 1012.3
20260502191529 18 328 8.0 17.7 0.00 0.00 0.00 69 1012.6
20260502183032 17 15 3.2 9.7 0.00 0.00 0.00 72 1013.1
20260502181606 17 22 0.0 4.8 0.00 0.00 0.00 73 1013.1
20260502163029 13 346 6.4 12.9 0.00 0.00 0.00 81 1013.4
20260502161531 13 340 6.4 14.5 0.00 0.00 0.00 81 1013.4
20260502151530 12 21 8.0 12.9 0.00 0.00 0.00 83 1013.1
20260502130106 11 17 1.6 6.4 0.00 0.00 0.00 84 1012.0
20260502123117 11 308 0.0 4.8 0.00 0.00 0.00 82 1011.9
20260502123109 12 292 3.2 8.0 0.00 0.00 0.00 81 1011.8
20260502111528 13 192 1.6 8.0 0.00 0.00 0.00 76 1011.9
20260502110038 13 323 6.4 11.3 0.00 0.00 0.00 75 1011.9
20260502104530 13 23 9.7 14.5 0.00 0.00 0.00 75 1012.3
20260502103033 13 38 8.0 12.9 0.00 0.00 0.00 75 1012.5
20260502091529 13 28 8.0 12.9 0.00 0.00 0.00 73 1012.9
20260502071531 14 31 3.2 8.0 0.00 0.00 0.00 69 1012.6
20260502064531 15 9 4.8 8.0 0.00 0.00 0.00 64 1012.7
20260502063030 16 23 8.0 12.9 0.00 0.00 0.00 64 1012.6
20260502061605 16 33 9.7 14.5 0.00 0.00 0.00 66 1012.6
20260502060030 15 20 8.0 12.9 0.00 0.00 0.00 66 1012.6
20260502054530 16 26 6.4 11.3 0.00 0.00 0.00 64 1012.3
20260502053030 16 17 0.0 4.8 0.00 0.00 0.00 62 1012.5
20260502051531 16 339 3.2 11.3 0.00 0.00 0.00 61 1012.2
20260502050030 17 7 9.7 17.7 0.00 0.00 0.00 61 1012.0
20260502044531 17 12 9.7 16.1 0.00 0.00 0.00 61 1012.0
20260502043030 17 3 8.0 12.9 0.00 0.00 0.00 60 1011.9
20260502041530 18 19 8.0 14.5 0.00 0.00 0.00 58 1011.6
20260502040107 18 342 9.7 20.9 0.00 0.00 0.00 56 1011.2
20260502034607 18 32 12.9 17.7 0.00 0.00 0.00 56 1011.3
20260502033032 18 43 9.7 16.1 0.00 0.00 0.00 55 1011.3
20260502031532 19 53 8.0 14.5 0.00 0.00 0.00 55 1011.2
20260502024607 20 336 11.3 22.5 0.00 0.00 0.00 52 1010.5
20260502023031 20 349 9.7 19.3 0.00 0.00 0.00 51 1010.1
20260502021531 21 344 9.7 17.7 0.00 0.00 0.00 49 1010.1
20260502013030 23 7 11.3 19.3 0.00 0.00 0.00 43 1009.8
20260502004532 25 304 8.0 11.3 0.00 0.00 0.00 38 1009.6
20260502003107 26 323 8.0 14.5 0.00 0.00 0.00 38 1009.8
20260502001529 25 318 8.0 16.1 0.00 0.00 0.00 39 1009.8
20260502000033 24 325 8.0 14.5 0.00 0.00 0.00 37 1010.0
20260501233103 26 16 11.3 20.9 0.00 0.00 0.00 33 1010.2
20260501231606 26 4 6.4 11.3 0.00 0.00 0.00 34 1010.4
20260501230031 27 343 9.7 19.3 0.00 0.00 0.00 34 1010.7
20260501224533 27 308 11.3 22.5 0.00 0.00 0.00 35 1010.9
20260501221532 26 347 8.0 19.3 0.00 0.00 0.00 37 1011.4
20260501220109 26 352 8.0 20.9 0.00 0.00 0.00 38 1011.6
20260501214531 25 329 6.4 16.1 0.00 0.00 0.00 38 1011.8
20260501213106 25 327 6.4 24.1 0.00 0.00 0.00 39 1012.0